Regional Weather Roundup
Issued by NWS

Home | Current Version | Previous Version | Text Only | Print | Product List | Glossary Off
Versions: 1 2 3 4 5 6 7 8 9 10 11 12 13 14 15 16 17 18 19 20 21 22 23 24 25 26 27 28 29 30 31 32 33 34 35 36 37 38 39 40 41 42 43 44 45 46 47 48 49 50

142
ASUS45 KPSR 060910
RWRAZ

ARIZONA HOURLY REGIONAL WEATHER ROUNDUP
NATIONAL WEATHER SERVICE PHOENIX AZ
200 AM MST TUE DEC 06 2016

NOTE: FAIR INDICATES FEW OR NO CLOUDS BELOW 12,000 FEET WITH NO
SIGNIFICANT WEATHER AND/OR OBSTRUCTIONS TO VISIBILITY.

AZZ001>003-036-061000-
NORTHWEST ARIZONA

CITY           SKY/WX    TMP DP  RH WIND       PRES   REMARKS
KINGMAN        PTCLDY    40  13  33 E3        29.89F
$$

AZZ004>008-015-016-018-061000-
NORTH CENTRAL ARIZONA

CITY           SKY/WX    TMP DP  RH WIND       PRES   REMARKS
GRAND CANYON   MOCLDY    26  22  84 CALM      29.93F
PRESCOTT       MOCLDY    37  21  52 S5        29.95S WCI  33
FLAGSTAFF      CLOUDY    32  18  56 W6        29.94F WCI  26
PAYSON         CLOUDY    41  19  42 E5        29.99S
PAGE           MOCLDY    40  10  29 CALM      29.85S
$$

AZZ009>014-017-061000-
NORTHEAST ARIZONA

CITY           SKY/WX    TMP DP  RH WIND       PRES   REMARKS
WINSLOW        CLOUDY    46  18  32 VRB6      29.90F
SAINT JOHNS    MOCLDY    35  17  47 E5        29.95S WCI  31
WINDOW ROCK    CLOUDY    39  14  36 W8        29.92F WCI  33
SHOW LOW       MOCLDY    36  10  35 S13       29.97F WCI  27
$$

AZZ023-061000-
GREATER PHOENIX AREA

CITY           SKY/WX    TMP DP  RH WIND       PRES   REMARKS
PHOENIX        MOCLDY    49  29  46 E8        29.91S
BUCKEYE        CLEAR     39  28  65 CALM      29.93R
LUKE AFB       PTCLDY    43  29  57 N6        29.90F
DEER VALLEY    PTCLDY    47  24  40 E5        29.91F
SCOTTSDALE     PTCLDY    46  30  53 CALM      29.93F
MESA-GATEWAY   MOCLDY    45  23  42 SE9       29.93F
$$

AZZ027-028-061000-
SOUTHWEST MARICOPA COUNTY AND PINAL COUNTY

CITY           SKY/WX    TMP DP  RH WIND       PRES   REMARKS
CASA GRANDE    NOT AVBL
GILA BEND      FAIR      47  22  36 SE8       29.90S
$$

AZZ503-504-507>509-061000-
SOUTHEAST ARIZONA

CITY           SKY/WX    TMP DP  RH WIND       PRES   REMARKS
TUCSON         CLEAR     47  23  38 SE6       29.98S
DAVIS-MONTHAN  CLEAR     45  23  42 E8        29.96F
NOGALES        PTCLDY    43  30  60 S3        30.00S
SIERRA VISTA   PTCLDY    43  29  58 N3        30.00S
DOUGLAS        CLEAR     45  34  65 S13       30.01S
SAFFORD        PTCLDY    41  16  36 NE7       29.95R
$$

AZZ020-021-025-026-031-061000-
SOUTHWEST ARIZONA

CITY           SKY/WX    TMP DP  RH WIND       PRES   REMARKS
YUMA           CLEAR     52  43  71 NE3       29.87F
$$

CAZ031-033-041-043-047-048-061-061000-
SOUTHERN CALIFORNIA

CITY           SKY/WX    TMP DP  RH WIND       PRES   REMARKS
DOWNTOWN L.A.  CLOUDY    57  52  83 E3        29.96F
L.A. AIRPORT   MOCLDY    58  53  84 NE5       29.97F
SAN DIEGO      MOCLDY    58  50  75 SE9       29.98F
BURBANK        CLOUDY    55  50  83 SE3       29.96F
ONTARIO        CLOUDY    53  49  86 NW6       29.97F FOG
RIVERSIDE      CLOUDY    54  49  83 W3        29.98S
PALM SPRINGS   PTCLDY    51  31  46 W5        29.88F
EL CENTRO NAS  CLEAR     44  30  57 CALM      29.88S
IMPERIAL       CLEAR     46  36  68 W3        29.87R
BLYTHE         CLEAR     44  17  33 N6        29.87F
NEEDLES        MOCLDY    51  16  24 CALM      29.86F
$$

NVZ020-UTZ003-061000-
SOUTHERN NEVADA-UTAH

CITY           SKY/WX    TMP DP  RH WIND       PRES   REMARKS
LAS VEGAS      MOCLDY    47  18  31 W5        29.82F
SALT LAKE CITY PTCLDY    25   5  42 S3        29.96F
$$

NMZ009-TXZ055-061000-
NEW MEXICO-WEST TEXAS

CITY           SKY/WX    TMP DP  RH WIND       PRES   REMARKS
ALBUQUERQUE    CLOUDY    36  16  44 SE6       29.94R WCI  31
EL PASO        PTCLDY    52  22  30 SW10      29.95R
$$


........................KEY........................
SKY/WX - SKY CONDITION/WEATHER
TMP    - TEMPERATURE IN FAHRENHEIT
DP     - DEW POINT IN FAHRENHEIT
RH     - RELATIVE HUMIDITY IN PERCENT
WIND   - DIRECTION AND SPEED IN MILES PER HOUR (MPH)
VRB    - VARIABLE WIND DIRECTION
PRES   - MEAN SEA LEVEL PRESSURE IN INCHES OF MERCURY
         F - FALLING PRESSURE   R - RISING PRESSURE
         S - STEADY PRESSURE
VSB    - VISIBILITY IN MILES
HX     - HEAT INDEX IN FAHRENHEIT
WCI    - WIND CHILL INDEX IN FAHRENHEIT
TC     - TEMPERATURE IN CELSIUS WHICH IS ALSO KNOWN AS
         TEMPERATURE IN CENTIGRADE
AFB    - AIR FORCE BASE
         LUKE AFB IS LUKE AIR FORCE BASE
         DAVIS-MONTHAN IS DAVIS-MONTHAN AIR FORCE BASE
NAS    - NAVAL AIR STATION
         EL CENTRO NAS IS EL CENTRO NAVAL AIR STATION
N/A    - NOT AVAILABLE





USA.gov is the U.S. government's official web portal to all federal, state and local government web resources and services.